Location: Lecco
(45.8566°N, 9.3977°E)
Time: 04:49:25
(UTC+02:00)

Transit 4A - Pass Details

Date: 19 August 2020
Orbit: 863 x 982 km, 66.8° (Epoch: 23 September)

Event Time Altitude Azimuth Distance (km) Brightness Sun altitude
Rises 14:15:30 0° 325° (NW) 3,630 10.8 55.0°
Reaches altitude 10° 14:19:35 10° 351° (N) 2,706 10.1 54.8°
Maximum altitude 14:22:42 14° 20° (NNE) 2,449 9.9 54.6°
Drops below altitude 10° 14:25:49 10° 50° (NE) 2,729 10.1 54.3°
Sets 14:29:58 0° 75° (ENE) 3,685 10.8 54.0°
